TimeCET,TemperatureF,Dew PointF,Humidity,Sea Level PressureIn,VisibilityMPH,Wind Direction,Wind SpeedMPH,Gust SpeedMPH,PrecipitationIn,Events,Conditions,WindDirDegrees,DateUTC
12:55 AM,55.4,37.4,51,29.89,6.2,SE,12.7,-,N/A,,Scattered Clouds,130,2013-03-05 23:55:00
1:00 AM,55,38,41,29.91,6,SE,12.7,,,,Partly Cloudy,130,2013-03-06 00:00:00
1:55 AM,53.6,39.2,58,29.89,6.2,SE,11.5,-,N/A,,Scattered Clouds,140,2013-03-06 00:55:00
2:55 AM,55.4,41.0,58,29.92,6.2,SE,13.8,-,N/A,,Scattered Clouds,130,2013-03-06 01:55:00
4:00 AM,55,39,44,29.88,6,SE,11.5,,,,Overcast,140,2013-03-06 03:00:00
4:55 AM,57.2,41.0,55,29.83,6.2,ESE,18.4,-,N/A,,Scattered Clouds,120,2013-03-06 03:55:00
6:55 AM,59.0,35.6,42,29.77,6.2,SE,24.2,35.7,N/A,,Scattered Clouds,130,2013-03-06 05:55:00
7:00 AM,59,36,29,29.79,6,SE,24.2,,,,Overcast,130,2013-03-06 06:00:00
8:55 AM,59.0,44.6,59,29.77,6.2,SE,26.5,43.7,N/A,,Mostly Cloudy,130,2013-03-06 07:55:00
10:00 AM,59,48,59,29.78,9,ESE,29.9,,,,Overcast,120,2013-03-06 09:00:00
10:55 AM,60.8,48.2,63,29.74,6.2,ESE,32.2,47.2,N/A,,Light Drizzle,120,2013-03-06 09:55:00
11:55 AM,57.2,55.4,94,29.77,3.7,ESE,27.6,40.3,N/A,Rain,Light Rain,120,2013-03-06 10:55:00
12:55 PM,55.4,53.6,94,29.74,3.1,ESE,26.5,39.1,N/A,Rain,Light Rain,120,2013-03-06 11:55:00
1:00 PM,55,54,93,29.75,3,ESE,26.5,,,Rain,Light Rain,120,2013-03-06 12:00:00
3:55 PM,55.4,53.6,94,29.71,1.9,ESE,20.7,-,N/A,Rain,Rain,120,2013-03-06 14:55:00
4:00 PM,55,54,93,29.71,2,ESE,20.7,,,Rain,Light Rain,120,2013-03-06 15:00:00
4:55 PM,55.4,53.6,94,29.68,1.2,SE,20.7,-,N/A,Rain,Light Rain,140,2013-03-06 15:55:00
5:55 PM,55.4,53.6,94,29.68,1.2,SE,17.3,-,N/A,Rain,Light Rain,130,2013-03-06 16:55:00
6:55 PM,55.4,55.4,100,29.68,2.5,SE,17.3,-,N/A,,Light Drizzle,140,2013-03-06 17:55:00
7:00 PM,56,55,94,29.70,2,SE,17.3,,,Rain,Light Drizzle,140,2013-03-06 18:00:00
7:55 PM,55.4,55.4,100,29.68,2.5,SSE,18.4,-,N/A,,Light Drizzle,150,2013-03-06 18:55:00
8:55 PM,57.2,55.4,94,29.68,2.5,SSE,17.3,-,N/A,Rain,Light Rain,150,2013-03-06 19:55:00
9:55 PM,57.2,55.4,94,29.71,1.9,SSE,15.0,-,N/A,,Mostly Cloudy,150,2013-03-06 20:55:00
10:00 PM,57,55,92,29.72,2,SSE,15.0,,,,Mist,150,2013-03-06 21:00:00
11:55 PM,57.2,55.4,94,29.71,3.1,SSE,10.4,-,N/A,,Mostly Cloudy,150,2013-03-06 22:55:00